FW9983 Weather Reports


time (UTC)temp
F
wind
direction
speed
knots
gust
knots
rain 1hr
in
rain 24hr
in
rain mn
in
humidity
%
barometer
mb
20260509135044 73 0 0.0 3.5 0.00 0.00 0.00 83 1010.5
20260509134551 73 355 0.0 3.5 0.00 0.00 0.00 84 1010.3
20260509134044 72 0 0.0 3.5 0.00 0.00 0.00 84 1010.5
20260509133543 72 0 0.9 3.5 0.00 0.00 0.00 85 1010.3
20260509133047 72 0 0.9 3.5 0.00 0.00 0.00 85 1010.2
20260509132543 71 330 0.0 3.5 0.00 0.00 0.00 87 1010.2
20260509132042 71 302 0.0 4.3 0.00 0.00 0.00 87 1010.1
20260509131552 70 0 0.9 5.2 0.00 0.00 0.00 88 1010.2
20260509131044 70 0 0.0 6.1 0.00 0.00 0.00 89 1010.2
20260509130544 69 0 0.9 6.1 0.00 0.00 0.00 89 1010.2
20260509125546 69 344 0.0 3.5 0.00 0.02 0.00 90 1010.3
20260509125046 69 296 0.9 3.5 0.00 0.02 0.00 91 1010.2
20260509124552 68 0 0.0 2.6 0.00 0.02 0.00 91 1010.2
20260509124044 68 0 0.0 2.6 0.00 0.02 0.00 91 1010.1
20260509123544 68 304 0.0 2.6 0.00 0.02 0.00 91 1010.1
20260509123053 68 0 0.0 2.6 0.00 0.02 0.00 91 1010.0
20260509122543 68 0 0.9 2.6 0.00 0.02 0.00 91 1010.0
20260509122043 68 275 0.0 2.6 0.00 0.02 0.00 91 1009.9
20260509121556 68 331 0.0 2.6 0.00 0.02 0.00 91 1009.9
20260509121049 68 319 0.0 2.6 0.00 0.02 0.00 90 1009.9
20260509120548 68 297 0.0 1.7 0.00 0.02 0.00 90 1010.0
20260509120058 68 0 0.0 2.6 0.00 0.02 0.00 90 1009.9
20260509115548 68 288 0.0 3.5 0.00 0.02 0.00 89 1010.0
20260509115048 68 320 0.0 6.1 0.00 0.02 0.00 89 1009.8
20260509114553 68 360 0.9 6.1 0.00 0.02 0.00 88 1009.8
20260509114049 68 329 0.0 6.1 0.00 0.02 0.00 88 1009.7
20260509113547 68 310 0.9 6.1 0.00 0.02 0.00 87 1009.6
20260509113049 68 299 0.9 6.1 0.00 0.02 0.00 86 1009.3
20260509112548 68 298 1.7 6.1 0.00 0.02 0.00 86 1009.2
20260509112047 68 290 1.7 6.1 0.00 0.02 0.00 85 1009.0
20260509111551 68 304 0.9 5.2 0.00 0.02 0.00 85 1008.9
20260509111049 68 289 0.9 4.3 0.00 0.02 0.00 84 1008.9
20260509110548 68 0 0.0 2.6 0.00 0.02 0.00 83 1008.7
20260509110057 68 0 0.0 2.6 0.00 0.02 0.00 83 1008.6
20260509105547 68 0 0.0 2.6 0.00 0.06 0.00 83 1008.3
20260509105048 69 0 0.0 2.6 0.00 0.06 0.00 83 1008.3
20260509104552 69 255 0.0 2.6 0.00 0.06 0.00 83 1008.3
20260509104047 69 0 0.0 2.6 0.00 0.06 0.00 82 1008.4
20260509103547 69 0 0.0 3.5 0.00 0.06 0.00 83 1008.4
20260509103051 69 0 0.0 3.5 0.00 0.06 0.00 82 1008.4
20260509102548 69 0 0.0 3.5 0.00 0.06 0.00 82 1008.4
20260509102051 69 0 0.0 3.5 0.00 0.06 0.00 82 1008.3
20260509101553 69 0 0.0 1.7 0.00 0.06 0.00 82 1008.3
20260509101048 70 0 0.0 1.7 0.00 0.06 0.00 82 1008.3
20260509100548 70 0 0.0 1.7 0.00 0.06 0.00 83 1008.2
20260509100049 70 0 0.0 1.7 0.00 0.06 0.00 83 1008.2
20260509095548 70 0 0.0 1.7 0.00 0.06 0.00 83 1008.2
20260509095047 70 0 0.0 1.7 0.00 0.06 0.00 84 1008.1
20260509094548 70 0 0.0 1.7 0.00 0.06 0.00 85 1008.0
20260509094048 70 0 0.0 1.7 0.00 0.06 0.00 85 1008.0
20260509093548 71 0 0.0 2.6 0.00 0.06 0.00 84 1007.7
20260509093052 71 0 0.0 2.6 0.00 0.06 0.00 84 1007.7
20260509092548 71 202 0.0 2.6 0.00 0.06 0.00 85 1007.6
20260509092048 71 0 0.0 2.6 0.00 0.06 0.00 84 1007.8
20260509091546 71 0 0.0 2.6 0.00 0.06 0.00 84 1007.9
20260509091048 71 300 0.0 1.7 0.00 0.06 0.00 84 1007.8
20260509090548 71 360 0.0 11.3 0.00 0.06 0.00 85 1007.8
20260509090049 71 0 0.0 11.3 0.00 0.06 0.00 85 1007.7
20260509085547 71 302 1.7 8.7 0.00 0.06 0.00 86 1007.8
20260509085049 71 241 0.9 10.4 0.00 0.06 0.00 87 1007.1
20260509084552 71 344 1.7 10.4 0.00 0.06 0.00 88 1006.2
20260509084048 70 192 1.7 8.7 0.00 0.06 0.00 88 1005.4
20260509083547 70 176 1.7 10.4 0.00 0.06 0.00 88 1005.7
20260509083050 70 229 0.9 10.4 0.00 0.06 0.00 88 1005.8
20260509082547 70 188 4.3 10.4 0.00 0.06 0.00 88 1005.4
20260509082047 70 196 2.6 10.4 0.00 0.06 0.00 88 1005.3
20260509081558 70 0 4.3 9.6 0.00 0.06 0.00 88 1005.9
20260509081048 70 202 3.5 9.6 0.00 0.06 0.00 88 1006.4
20260509080545 70 256 0.9 7.8 0.00 0.06 0.00 88 1007.0
20260509080059 70 232 0.9 6.1 0.00 0.06 0.00 88 1007.4
20260509075550 70 186 0.9 7.8 0.00 0.06 0.00 88 1007.8
20260509075048 70 210 1.7 8.7 0.00 0.06 0.00 88 1008.0
20260509074554 70 254 0.9 8.7 0.00 0.06 0.00 88 1008.3
20260509074047 70 235 2.6 7.8 0.00 0.06 0.00 88 1008.7
20260509073548 70 269 1.7 8.7 0.00 0.06 0.00 88 1009.1
20260509073054 70 248 1.7 8.7 0.00 0.06 0.00 88 1009.0
20260509072546 70 256 0.9 5.2 0.00 0.06 0.00 88 1009.0
20260509072046 70 170 1.7 8.7 0.00 0.06 0.00 88 1009.2
20260509071557 70 0 1.7 8.7 0.00 0.06 0.00 88 1009.4
20260509071045 70 232 2.6 8.7 0.00 0.06 0.00 88 1009.7
20260509070549 70 241 1.7 7.0 0.00 0.06 0.00 89 1009.8
20260509070104 70 262 2.6 7.0 0.00 0.06 0.00 89 1009.7
20260509065545 69 258 1.7 7.0 0.00 0.06 0.00 90 1009.8
20260509065045 69 283 1.7 5.2 0.00 0.06 0.00 90 1010.4
20260509064558 69 217 0.9 4.3 0.00 0.06 0.00 89 1010.6
20260509064045 69 208 0.0 3.5 0.00 0.06 0.00 89 1010.5
20260509063549 69 225 0.0 4.3 0.00 0.06 0.00 89 1010.3
20260509063054 69 0 0.0 4.3 0.00 0.06 0.00 89 1010.4
20260509062545 69 0 0.0 4.3 0.00 0.06 0.00 89 1010.3
20260509062048 69 0 0.9 4.3 0.00 0.06 0.00 89 1010.2
20260509061606 69 252 1.7 3.5 0.00 0.06 0.00 89 1010.2
20260509061045 69 242 0.9 3.5 0.00 0.06 0.00 89 1010.2
20260509060545 69 271 0.0 0.0 0.00 0.06 0.00 88 1010.3
20260509060113 69 0 0.0 0.0 0.00 0.06 0.00 88 1010.2
20260509055546 69 0 0.0 0.0 0.00 0.06 0.00 88 1010.3
20260509055045 69 0 0.0 0.0 0.00 0.06 0.00 87 1010.2
20260509054554 70 0 0.0 0.0 0.00 0.06 0.00 87 1010.4
20260509054045 70 0 0.0 0.0 0.00 0.06 0.00 87 1010.8
20260509053546 70 0 0.0 0.0 0.00 0.06 0.00 86 1010.9
20260509053050 70 0 0.0 0.0 0.00 0.06 0.00 86 1010.8
20260509052547 70 0 0.0 0.0 0.00 0.06 0.00 86 1010.9
20260509052045 70 0 0.0 0.9 0.00 0.06 0.00 86 1011.0
20260509051558 71 0 0.0 1.7 0.00 0.06 0.00 86 1011.0
20260509051046 71 0 0.0 1.7 0.00 0.06 0.00 85 1011.1
20260509050546 71 0 0.0 1.7 0.00 0.06 0.00 85 1011.4
20260509050123 71 0 0.0 0.9 0.00 0.06 0.00 84 1010.9
20260509045545 71 0 0.0 1.7 0.00 0.06 0.06 84 1010.3
20260509045045 72 0 0.0 1.7 0.00 0.06 0.06 83 1010.0
20260509044602 72 0 0.0 1.7 0.00 0.06 0.06 83 1010.2
20260509044047 72 0 0.0 1.7 0.00 0.06 0.06 83 1010.3
20260509043545 72 0 0.0 6.1 0.00 0.06 0.06 83 1010.2
20260509043053 72 207 0.0 6.1 0.00 0.06 0.06 83 1010.0
20260509042547 72 194 0.0 5.2 0.00 0.06 0.06 83 1009.8
20260509042049 72 0 0.9 5.2 0.00 0.06 0.06 83 1009.6
20260509041550 72 213 1.7 4.3 0.00 0.06 0.06 83 1009.6
20260509041049 72 203 1.7 4.3 0.00 0.06 0.06 83 1009.7
20260509040547 72 171 0.9 4.3 0.00 0.06 0.06 82 1009.7
20260509040058 72 0 0.0 5.2 0.00 0.06 0.06 82 1009.6
20260509035551 72 0 0.9 5.2 0.00 0.06 0.06 82 1009.6
20260509035047 72 209 0.0 4.3 0.00 0.06 0.06 82 1009.6
20260509034552 73 165 0.0 2.6 0.00 0.06 0.06 82 1009.7
20260509034046 73 0 0.0 0.0 0.00 0.06 0.06 82 1010.0
20260509033547 72 0 0.0 0.0 0.00 0.06 0.06 82 1010.2
20260509033056 72 0 0.0 0.9 0.00 0.06 0.06 82 1010.3
20260509032544 72 0 0.0 2.6 0.00 0.06 0.06 82 1010.3
20260509032047 72 0 0.0 3.5 0.00 0.06 0.06 82 1010.2
20260509031555 72 0 0.0 3.5 0.00 0.06 0.06 82 1010.2
20260509031048 72 120 0.0 3.5 0.00 0.06 0.06 82 1010.0
20260509030548 72 0 0.0 4.3 0.00 0.06 0.06 82 1009.5
20260509030054 72 0 0.0 4.3 0.00 0.06 0.06 82 1009.5
20260509025546 72 0 0.9 4.3 0.00 0.06 0.06 82 1009.3
20260509025046 72 0 0.0 2.6 0.00 0.06 0.06 82 1009.2
20260509024617 72 126 0.0 3.5 0.00 0.06 0.06 82 1009.0
20260509024047 72 120 0.0 4.3 0.00 0.06 0.06 82 1008.9
20260509023550 72 180 0.0 7.0 0.00 0.06 0.06 81 1008.7
20260509023101 72 0 1.7 7.0 0.00 0.06 0.06 81 1008.5
20260509022547 72 186 1.7 7.0 0.00 0.06 0.06 81 1008.3
20260509022047 72 206 1.7 6.1 0.00 0.06 0.06 81 1008.3
20260509021555 72 197 0.9 6.1 0.00 0.06 0.06 81 1008.3
20260509021046 72 0 1.7 6.1 0.00 0.06 0.06 80 1008.3
20260509020548 73 164 0.9 6.1 0.00 0.06 0.06 80 1008.4
20260509020058 73 153 0.0 7.0 0.00 0.06 0.06 80 1008.3
20260509015547 73 193 1.7 7.8 0.00 0.06 0.06 80 1008.0
20260509015047 73 155 2.6 8.7 0.00 0.06 0.06 80 1008.0
20260509014553 73 172 2.6 8.7 0.00 0.06 0.06 80 1008.1
20260509014048 73 204 1.7 5.2 0.00 0.06 0.06 79 1008.3
20260509013548 73 186 0.9 4.3 0.00 0.06 0.06 79 1008.5
20260509013059 73 216 0.0 3.5 0.00 0.06 0.06 79 1008.6
20260509012545 73 162 0.9 3.5 0.00 0.06 0.06 79 1008.7
20260509012046 73 0 0.0 3.5 0.00 0.06 0.06 79 1008.8
20260509011556 73 0 0.9 3.5 0.00 0.06 0.06 79 1008.8
20260509011045 73 0 0.0 4.3 0.00 0.06 0.06 78 1008.6
20260509010545 73 0 0.0 4.3 0.00 0.06 0.06 78 1008.4
20260509010049 73 61 0.0 4.3 0.00 0.06 0.06 78 1008.3
20260509005545 73 0 0.0 7.0 0.00 0.06 0.06 78 1008.2
20260509005045 73 206 0.0 10.4 0.00 0.06 0.06 78 1008.2
20260509004554 73 140 1.7 10.4 0.00 0.06 0.06 77 1008.0
20260509004048 73 182 1.7 6.1 0.00 0.06 0.06 77 1008.0
20260509003546 73 165 0.9 7.0 0.00 0.06 0.06 77 1008.0
20260509003103 73 201 1.7 7.0 0.00 0.06 0.06 76 1008.0
20260509002548 74 54 1.7 7.0 0.00 0.06 0.06 76 1007.9
20260509002046 74 192 2.6 7.0 0.00 0.06 0.06 76 1007.9
20260509001553 74 176 3.5 8.7 0.00 0.06 0.06 76 1007.8
20260509001046 74 180 1.7 8.7 0.00 0.06 0.06 76 1007.7
20260509000545 74 167 2.6 7.8 0.00 0.06 0.06 75 1007.8
20260508235545 74 148 2.6 6.1 0.00 0.06 0.06 75 1008.1
20260508235044 74 0 0.9 4.3 0.00 0.06 0.06 74 1008.2
20260508234548 74 254 0.9 5.2 0.00 0.06 0.06 74 1008.2
20260508234045 74 175 0.9 5.2 0.00 0.06 0.06 74 1008.3
20260508233547 74 138 0.9 7.0 0.00 0.06 0.06 74 1008.4
20260508233055 74 172 2.6 7.0 0.00 0.06 0.06 73 1008.4
20260508232545 74 155 1.7 7.0 0.00 0.06 0.06 73 1008.5
20260508232046 75 215 1.7 7.0 0.00 0.06 0.06 73 1008.4
20260508231557 75 192 1.7 7.0 0.00 0.06 0.06 73 1008.4
20260508231048 75 86 0.9 6.1 0.00 0.06 0.06 73 1008.4
20260508230548 75 111 1.7 6.1 0.00 0.06 0.06 72 1008.3
20260508230106 75 155 0.9 6.1 0.00 0.06 0.06 71 1008.4
20260508225546 75 81 1.7 6.1 0.00 0.06 0.06 71 1008.4
20260508225046 75 126 1.7 7.0 0.00 0.06 0.06 70 1008.4
20260508224548 76 167 1.7 7.8 0.00 0.06 0.06 70 1008.4
20260508224045 76 214 1.7 8.7 0.00 0.06 0.06 69 1008.4
20260508223545 76 199 3.5 8.7 0.00 0.06 0.06 69 1008.5
20260508223050 76 153 1.7 7.8 0.00 0.06 0.06 69 1008.4
20260508222545 76 223 1.7 7.8 0.00 0.06 0.06 68 1008.5
20260508222047 76 0 2.6 7.8 0.00 0.06 0.06 67 1008.5
20260508221550 77 161 1.7 7.8 0.00 0.06 0.06 67 1008.4
20260508221048 76 0 2.6 7.8 0.00 0.06 0.06 67 1008.6
20260508220550 77 187 3.5 7.8 0.00 0.06 0.06 66 1008.6
20260508220053 76 182 1.7 8.7 0.00 0.06 0.06 67 1008.6
20260508215548 76 128 1.7 8.7 0.00 0.06 0.06 68 1008.5
20260508215048 76 195 2.6 10.4 0.00 0.06 0.06 68 1008.5
20260508214600 75 137 1.7 10.4 0.00 0.06 0.06 68 1008.5
20260508214049 75 226 4.3 8.7 0.00 0.06 0.06 68 1008.7
20260508213548 76 201 3.5 7.8 0.00 0.06 0.06 68 1008.7
20260508213049 75 129 2.6 7.8 0.00 0.06 0.06 68 1008.8
20260508212548 75 260 1.7 6.1 0.00 0.06 0.06 68 1008.8
20260508212048 75 178 1.7 5.2 0.00 0.06 0.06 67 1008.9
20260508211556 75 0 1.7 8.7 0.00 0.06 0.06 67 1009.0
20260508211055 75 232 1.7 8.7 0.00 0.06 0.06 67 1009.2
20260508210548 76 360 2.6 8.7 0.00 0.06 0.06 66 1009.1
20260508210050 76 198 2.6 7.8 0.00 0.06 0.06 65 1009.0
20260508205547 76 128 1.7 6.1 0.00 0.06 0.06 68 1009.0
20260508205047 76 185 2.6 6.1 0.00 0.06 0.06 68 1009.1
20260508204551 75 150 1.7 6.1 0.00 0.06 0.06 69 1008.9
20260508204049 75 0 0.9 5.2 0.00 0.06 0.06 69 1009.2
20260508203547 74 0 1.7 5.2 0.00 0.06 0.06 70 1009.5
20260508203054 73 183 0.9 4.3 0.00 0.06 0.06 71 1009.8
20260508202548 73 183 1.7 7.0 0.00 0.06 0.06 70 1010.2
20260508202051 73 113 0.9 7.0 0.00 0.06 0.06 70 1010.6
20260508201557 73 217 0.9 6.1 0.00 0.06 0.06 69 1010.9
20260508201048 73 0 0.9 5.2 0.00 0.06 0.06 69 1011.0
20260508200548 73 199 0.9 6.1 0.00 0.06 0.06 69 1010.9
20260508200055 74 169 0.9 6.1 0.00 0.06 0.06 69 1010.9
20260508195547 74 169 2.6 6.1 0.00 0.06 0.06 68 1010.9
20260508195047 75 149 0.9 6.1 0.00 0.06 0.06 67 1010.9
20260508194615 75 317 0.9 6.1 0.00 0.06 0.06 68 1010.8
20260508194047 75 0 0.9 6.1 0.00 0.06 0.06 68 1010.7
20260508193548 75 136 1.7 5.2 0.00 0.06 0.06 68 1010.7
20260508193052 75 159 0.0 4.3 0.00 0.06 0.06 69 1010.8
20260508192548 75 229 0.0 6.1 0.00 0.06 0.06 69 1010.9
20260508192048 75 0 0.9 6.1 0.00 0.06 0.06 69 1010.9
20260508191559 75 309 0.9 7.0 0.00 0.06 0.06 68 1010.9
20260508191051 75 136 3.5 7.0 0.00 0.06 0.06 67 1011.1
20260508190547 75 144 0.9 5.2 0.00 0.06 0.06 67 1011.1
20260508190056 75 0 0.9 6.1 0.00 0.06 0.06 66 1011.1
20260508185548 76 249 0.9 6.1 0.00 0.06 0.06 68 1011.1
20260508185046 76 145 1.7 6.1 0.00 0.06 0.06 66 1011.2
20260508184552 76 238 0.9 6.1 0.00 0.06 0.06 65 1011.2
20260508184046 77 236 0.9 5.2 0.00 0.06 0.06 65 1011.2
20260508183545 77 152 0.0 5.2 0.00 0.06 0.06 65 1011.3
20260508183051 76 0 0.0 5.2 0.00 0.06 0.06 66 1011.1
20260508182546 76 175 0.9 4.3 0.00 0.06 0.06 67 1011.2
20260508182045 76 0 1.7 4.3 0.00 0.06 0.06 66 1011.3
20260508181613 76 0 0.9 4.3 0.00 0.06 0.06 66 1011.3
20260508181045 76 0 0.9 5.2 0.00 0.06 0.06 67 1011.5
20260508180545 76 0 0.9 5.2 0.00 0.06 0.06 66 1011.6
20260508180058 76 0 1.7 5.2 0.00 0.06 0.06 65 1011.7
20260508175545 76 0 0.9 5.2 0.00 0.06 0.06 65 1011.9
20260508175047 76 157 1.7 5.2 0.00 0.06 0.06 66 1011.8
20260508174602 75 165 0.9 4.3 0.00 0.06 0.06 65 1011.8
20260508174046 75 211 1.7 5.2 0.00 0.06 0.06 66 1011.8
20260508173547 75 173 0.9 8.7 0.00 0.06 0.06 67 1012.0
20260508173055 75 171 1.7 8.7 0.00 0.06 0.06 65 1012.0
20260508172545 75 169 0.9 7.8 0.00 0.06 0.06 64 1012.2
20260508172046 75 133 1.7 5.2 0.00 0.06 0.06 65 1012.2
20260508171548 74 267 0.9 6.1 0.00 0.06 0.06 68 1012.4
20260508171045 74 217 0.9 6.1 0.00 0.06 0.06 65 1012.3
20260508170545 74 0 0.0 6.1 0.00 0.06 0.06 66 1012.3
20260508170048 73 204 0.9 5.2 0.00 0.06 0.06 66 1012.4
20260508165545 73 288 0.9 5.2 0.00 0.06 0.06 67 1012.5
20260508165046 73 217 1.7 5.2 0.00 0.06 0.06 67 1012.8
20260508164552 72 0 0.9 5.2 0.00 0.06 0.06 66 1013.0
20260508164044 71 151 0.0 4.3 0.00 0.06 0.06 69 1013.0
20260508163546 71 0 0.0 7.0 0.00 0.06 0.06 68 1013.0
20260508163102 70 161 1.7 7.0 0.00 0.06 0.06 67 1013.1
20260508162547 70 210 0.9 7.0 0.00 0.06 0.06 68 1013.3
20260508162047 71 0 0.9 7.0 0.00 0.06 0.06 68 1013.4
20260508161606 70 220 0.9 6.1 0.00 0.06 0.06 69 1013.4
20260508161047 70 131 0.9 5.2 0.00 0.06 0.06 68 1013.4
20260508160547 70 212 1.7 5.2 0.00 0.06 0.06 69 1013.5
20260508160054 69 137 0.9 6.1 0.00 0.06 0.06 70 1013.5
20260508155546 69 0 1.7 6.1 0.00 0.06 0.06 69 1013.6
20260508155047 69 191 1.7 5.2 0.00 0.06 0.06 69 1013.6
20260508154552 69 86 0.0 5.2 0.00 0.06 0.06 70 1013.6
20260508154047 68 189 0.0 4.3 0.00 0.06 0.06 70 1013.7
20260508153544 68 223 1.7 4.3 0.00 0.06 0.06 70 1013.8
20260508153055 68 249 0.9 7.0 0.00 0.06 0.06 70 1013.7
20260508152548 68 174 1.7 7.0 0.00 0.06 0.06 70 1013.8
20260508152047 67 242 1.7 6.1 0.00 0.06 0.06 72 1013.8
20260508151602 67 190 0.9 4.3 0.00 0.06 0.06 73 1013.8
20260508151048 66 0 0.0 3.5 0.00 0.06 0.06 75 1014.0
20260508150547 66 148 0.0 3.5 0.00 0.06 0.06 74 1014.1
20260508150055 66 153 0.0 4.3 0.00 0.06 0.06 76 1014.1
20260508145548 65 0 0.0 4.3 0.00 0.06 0.06 76 1014.0
20260508145043 65 201 0.0 4.3 0.00 0.06 0.06 76 1013.9
20260508144549 65 0 0.9 4.3 0.00 0.06 0.06 75 1014.0
20260508144048 64 136 1.7 6.1 0.00 0.06 0.06 76 1014.0
20260508143548 64 0 0.9 6.1 0.00 0.06 0.06 77 1014.0
20260508143051 64 0 0.9 6.1 0.00 0.06 0.06 77 1014.3
20260508142548 64 0 0.0 2.6 0.00 0.06 0.06 80 1014.3
20260508142049 64 0 0.0 2.6 0.00 0.06 0.06 81 1014.3
20260508141554 63 0 0.0 3.5 0.00 0.06 0.06 81 1014.2
20260508141047 63 0 0.0 3.5 0.00 0.06 0.06 81 1014.2
20260508140548 63 189 0.0 3.5 0.00 0.06 0.06 83 1014.3
20260508140051 63 0 0.9 3.5 0.00 0.06 0.06 83 1014.4
20260508135547 63 0 0.0 4.3 0.00 0.06 0.06 83 1014.3